Location: Alincthun
(50.7310°N, 1.8022°E)
Time: 04:59:01
(UTC+00:00)

Cosmos 1339 Rocket - Pass Details

Date: 17 February 2020
Orbit: 943 x 1005 km, 82.9° (Epoch: 30 March)

Event Time Altitude Azimuth Distance (km) Brightness Sun altitude
Rises 04:41:06 0° 190° (S) 3,596 7.3 -22.9°
Reaches altitude 10° 04:43:34 10° 191° (S) 2,655 6.6 -22.5°
Maximum altitude 04:49:38 83° 279° (W) 960 4.3 -21.6°
Drops below altitude 10° 04:55:48 10° 9° (N) 2,691 7.0 -20.6°
Sets 04:58:19 0° 10° (N) 3,648 7.7 -20.2°
